DELTA 1 R/B, 2436

Orbit data source: Space-Track

DELTA 1 R/B, 2436 is space debris in SSO originally from a launch on Sun, 02 Oct 1966 UTC launched from the Air Force Western Test Range (AFWTR). Debris objects in space refer to the collection of defunct objects orbiting the Earth. Examples of debris include non-operational satellites, rocket bodies, and fragments generated from explosions, collisions, or faulty payload assembly.

Loading next visibility...
Identifier
2436, 1966-087B
Orbit
SSO
Last TLE update
7 hours ago
Origin
Manufacturer
ABL
Mission
Spacecraft
Bus & Motor
ALTAIR, Unknown motor
Mass
33 kg wet, 33 kg dry
Launch date (UTC)
1966-10-02 (59 years ago)
Launch vehicle
Unknown
Launch site
Air Force Western Test Range (AFWTR)
Object type
Payload
Rocket body
Debris
Shape & HBR
Cyl, 1.5 m
Radar Cross Section
0.687 m², Medium (>0.1 m² and < 1m²)

Expand to show TLE details & history

TLE from 7 hours ago
0 DELTA 1 R/B
1 02436U 66087B   25183.55314829 -.00000015  00000-0  15054-3 0  9993
2 02436 100.9880 154.0758 0065675   9.3876 350.8413 12.57659561696153
Epoch: 2025-07-02T13:16Z
TLE epoch observation values (Epoch: 2025-07-02T13:16:32.012Z)
Latitude
-0.00006°
Longitude
34.10983°
Altitude
1,384.589 km
Speed
7.19 km/s
True Right ascension
10h 16m 18s
True Declination
0° 00' 00"
Sunlit
Object was in daylight at epoch
Visualization orbit readout
Latitude
-62.2936°
Longitude
55.98014°
Altitude
1,441.071 km
Speed
7.148 km/s
Apparent Right ascension
17h 09m 11s
Apparent Declination
-70° 34' 41"
Sunlit
Object is in daylight
Visualization observer readout
Local Sidereal Time
08:18:30
Azimuth
157.097° SSE
Elevation
-51.079°
Doppler factor
1
Orbital elements
Apogee altitude
1,481.394 km
Perigee altitude
1,378.832 km
Semi-major axis
7,808.25 km
Eccentricity
0.00657
Inclination
100.988°
RAAN
154.0758°
Arg. of periapsis
9.3876°
True anomaly
Unknown
Mean anomaly
350.8413°
Eccentric anomaly
Unknown
Mean motion
3.14567 °/min
Orbital period
114.44 mins
BSTAR
0.00015054
Loading maneuver chart data...
Loading SW <> Apogee altitude chart data...
Loading historical data...
Loading historical data...
Loading historical data...
Loading historical data...
Loading historical data...
Loading historical data...
Loading historical data...
Other satellites on launch #87 in the year 1966 (1966-10-02 UTC)

DELTA 1 R/B Visibility forecast

Observer location: undefined°, undefined°

Span
Click to sort rows by Start time (UTC) header in descending order
Start Az.
Max El. time (UTC)
Max El. Az.
Max El.
End time (UTC)
End Az.
14 mins2025-07-02 21:01:27.189Z134.19° SE2025-07-02 21:08:27.189Z67.081° ENE36.641°2025-07-02 21:15:27.189Z356.01° N
12 mins2025-07-02 22:55:27.189Z204.284° SW2025-07-02 23:01:27.189Z266.244° W30.448°2025-07-02 23:07:27.189Z323.01° NNW
6 mins2025-07-03 09:04:27.189Z67.792° E2025-07-03 09:07:27.189Z90.875° ESE14.144°2025-07-03 09:10:27.189Z113.374° SE
15 mins2025-07-03 10:53:27.189Z19.106° NNE2025-07-03 11:00:27.189Z76.217° E44.452°2025-07-03 11:08:27.189Z193.176° SSW
11 mins2025-07-03 12:47:27.189Z346.977° N2025-07-03 12:52:27.189Z304.347° NW22.218°2025-07-03 12:58:27.189Z257.069° W
9 mins2025-07-03 20:01:27.189Z85.591° E2025-07-03 20:05:27.189Z50.312° ENE19.151°2025-07-03 20:10:27.189Z10.911° NNE
|